CW0003 Weather Reports


time (UTC)temp
F
wind
direction
speed
knots
gust
knots
rain 1hr
in
rain 24hr
in
rain mn
in
humidity
%
barometer
mb
20220627201506 74 0.0 0.0 0.00 0.34 0.34 95 1010.8
20220627200100 74 0.0 0.0 0.00 0.34 0.34 95 1010.9
20220627194553 74 0.0 0.0 0.00 0.34 0.34 94 1010.9
20220627193044 73 0.0 0.0 0.00 0.34 0.34 94 1011.0
20220627191538 73 0.0 0.0 0.01 0.34 0.34 94 1011.2
20220627190032 73 0.0 0.0 0.04 0.34 0.34 95 1011.0
20220627184525 73 0.0 0.0 0.04 0.34 0.34 94 1011.1
20220627183018 73 0.0 0.0 0.04 0.34 0.34 94 1011.2
20220627181514 73 0.0 0.0 0.03 0.33 0.33 93 1011.2
20220627180006 73 0.0 0.0 0.00 0.30 0.30 94 1011.3
20220627174557 73 0.0 0.0 0.00 0.30 0.30 94 1011.3
20220627173055 73 0.0 0.0 0.00 0.30 0.30 94 1011.5
20220627171549 73 0.0 0.0 0.00 0.30 0.30 95 1011.5
20220627170043 73 0.0 0.0 0.01 0.30 0.30 95 1011.2
20220627164535 73 0.0 0.0 0.01 0.30 0.30 95 1011.4
20220627163025 72 0.0 0.0 0.01 0.30 0.30 94 1011.4
20220627161519 72 0.0 0.0 0.01 0.30 0.30 94 1011.2
20220627160015 72 0.0 0.0 0.02 0.28 0.28 94 1011.2
20220627154507 72 0.0 0.0 0.22 0.28 0.28 93 1011.3
20220627153104 72 0.0 0.0 0.27 0.28 0.28 92 1011.3
20220627151553 72 0.0 0.0 0.28 0.28 0.28 91 1011.2
20220627150046 72 0.0 0.0 0.27 0.27 0.27 90 1011.2
20220627144541 73 0.0 0.0 0.08 0.08 0.08 88 1011.3
20220627143040 73 140 2.6 7.8 0.02 0.02 0.02 87 1011.1
20220627141536 74 115 1.7 8.7 0.00 0.00 0.00 86 1011.0
20220627140030 73 179 1.7 11.3 0.00 0.00 0.00 86 1011.1
20220627134526 73 170 3.5 12.2 0.00 0.00 0.00 85 1011.0
20220627133025 73 162 1.7 7.8 0.00 0.00 0.00 86 1011.2
20220627131537 72 200 1.7 11.3 0.00 0.00 0.00 86 1011.2
20220627130016 72 147 1.7 7.8 0.00 0.00 0.00 85 1011.0
20220627124512 72 219 3.5 11.3 0.00 0.00 0.00 85 1010.9
20220627123010 72 360 5.2 13.9 0.00 0.00 0.00 86 1010.7
20220627121501 71 138 3.5 9.6 0.00 0.00 0.00 86 1011.0
20220627120058 71 0.0 0.0 0.00 0.00 0.00 86 1011.2
20220627114552 71 0.0 0.0 0.00 0.00 0.00 86 1011.3
20220627113044 70 0.0 0.0 0.00 0.00 0.00 86 1011.1
20220627111541 70 0.0 0.0 0.00 0.00 0.00 85 1011.3
20220627110035 70 0.0 0.0 0.00 0.00 0.00 85 1011.3
20220627104524 69 0.0 0.0 0.00 0.00 0.00 85 1011.3
20220627103018 69 0.0 0.0 0.00 0.00 0.00 86 1011.5
20220627101512 69 0.0 0.0 0.00 0.00 0.00 85 1011.8
20220627100002 68 0.0 0.0 0.00 0.00 0.00 86 1011.8
20220627094555 68 0.0 0.0 0.00 0.00 0.00 85 1011.9
20220627093051 68 0.0 0.0 0.00 0.00 0.00 85 1012.0
20220627091543 68 0.0 0.0 0.00 0.00 0.00 84 1012.2
20220627090036 68 0.0 0.0 0.00 0.00 0.00 83 1012.2
20220627084529 68 0.0 0.0 0.00 0.00 0.00 82 1012.5
20220627083023 68 0.0 0.0 0.00 0.00 0.00 82 1012.4
20220627081516 68 0.0 0.0 0.00 0.00 0.00 80 1012.5
20220627080010 68 0.0 0.0 0.00 0.00 0.00 79 1012.6
20220627074502 68 0.0 0.0 0.00 0.00 0.00 78 1012.7
20220627073056 68 0.0 0.0 0.00 0.00 0.00 77 1013.0
20220627071553 68 0.0 0.0 0.00 0.00 0.00 76 1013.1
20220627070043 68 0.0 0.0 0.00 0.00 0.00 75 1013.3
20220627064546 69 0.0 0.0 0.00 0.00 0.00 74 1013.5
20220627063029 69 0.0 0.0 0.00 0.00 0.00 72 1013.6
20220627061523 69 0.0 0.0 0.00 0.00 0.00 71 1013.6
20220627060019 69 0.0 0.0 0.00 0.00 0.00 71 1013.7
20220627054511 69 0.0 0.0 0.00 0.00 0.00 70 1013.7
20220627053011 69 0.0 0.0 0.00 0.00 0.00 70 1013.8
20220627051601 70 0.0 0.0 0.00 0.00 0.00 70 1014.2
20220627050054 70 0.0 0.0 0.00 0.00 0.00 71 1014.0
20220627044551 70 0.0 0.0 0.00 0.00 0.00 71 1014.3
20220627043041 70 0.0 0.0 0.00 0.00 0.00 70 1014.4
20220627041532 71 0.0 0.0 0.00 0.00 0.00 71 1014.4
20220627040026 71 0.0 0.0 0.00 0.00 0.00 70 1014.7
20220627034533 71 0.0 0.0 0.00 0.00 0.00 71 1014.8
20220627033013 71 0.0 0.0 0.00 0.00 0.00 74 1015.0
20220627031506 71 0.0 0.0 0.00 0.00 0.00 77 1014.7
20220627030101 72 0.0 0.0 0.00 0.00 0.00 79 1014.7
20220627024553 72 0.0 0.0 0.00 0.00 0.00 81 1014.8
20220627023057 72 0.0 0.0 0.00 0.00 0.00 81 1014.9
20220627021549 73 0.0 0.0 0.00 0.00 0.00 82 1015.1
20220627020031 73 0.0 0.0 0.00 0.00 0.00 81 1015.1
20220627014524 74 0.0 0.0 0.00 0.00 0.00 80 1014.9
20220627013017 75 0.0 0.0 0.00 0.00 0.00 78 1014.8
20220627011511 75 0.0 0.0 0.00 0.00 0.00 76 1014.7
20220627010049 76 0.0 0.0 0.00 0.00 0.00 75 1014.6
20220627004537 77 0.0 0.0 0.00 0.00 0.00 73 1014.4
20220627003029 77 0.0 0.0 0.00 0.00 0.00 72 1014.3
20220627001523 78 0.0 0.0 0.00 0.00 0.00 71 1014.3
20220627000018 79 0.0 0.0 0.00 0.00 0.00 69 1014.2
20220626234512 80 115 1.7 7.0 0.00 0.00 0.00 68 1014.2
20220626233012 81 129 2.6 9.6 0.00 0.00 0.00 67 1014.1
20220626231503 82 119 1.7 9.6 0.00 0.00 0.00 69 1014.0
20220626230101 82 123 4.3 9.6 0.00 0.00 0.00 66 1013.9
20220626224557 83 136 5.2 14.8 0.00 0.00 0.00 64 1013.7
20220626223101 84 126 2.6 11.3 0.00 0.00 0.00 64 1013.6
20220626221552 85 131 6.1 13.9 0.00 0.00 0.00 63 1013.7
20220626220046 86 360 5.2 11.3 0.00 0.00 0.00 62 1013.7
20220626214542 87 146 6.1 13.9 0.00 0.00 0.00 59 1013.6
20220626213039 87 360 3.5 13.0 0.00 0.00 0.00 56 1013.6
20220626211536 87 172 5.2 7.8 0.00 0.00 0.00 56 1013.9
20220626210032 88 122 0.9 7.0 0.00 0.00 0.00 61 1013.9
20220626204530 89 135 1.7 7.0 0.00 0.00 0.00 62 1014.1
20220626203025 90 160 0.0 8.7 0.00 0.00 0.00 56 1014.1